Location: Bittkow
(50.3000°N, 19.0000°E)
Time: 02:04:45
(UTC+00:00)

IRS-1C - Pass Details

Date: 19 September 2020
Orbit: 815 x 817 km, 98.8° (Epoch: 30 October)

Event Time Altitude Azimuth Distance (km) Brightness Sun altitude
Rises 01:47:06 0° 14° (NNE) 3,359 8.1 -24.5°
Reaches altitude 10° 01:49:27 10° 13° (NNE) 2,422 7.2 -24.2°
Maximum altitude 01:54:49 79° 288° (WNW) 839 4.0 -23.5°
Enters shadow 01:55:58 56° 216° (SW) 970 4.1 -23.3°
